Preview of NWS' New Version of Forecast
This preview is not operational and should not be used for support decisions.

Regional Weather Roundup (RWR)

Issued by National Weather Service (NWS)

                            
000
ASUS44 KJAN 230410
RWRMS 

MISSISSIPPI HOURLY WEATHER ROUNDUP
NATIONAL WEATHER SERVICE JACKSON MS
1100 PM CDT MON APR 22 2019

NOTE: "FAIR: INDICATES FEW OR NO CLOUDS BELOW 12,000 FEET WITH NO
SIGNIFICANT WEATHER AND/OR OBSTRUCTIONS TO VISIBILITY.

MSZ001>002-007>008-010>013-018>021-025>028-034>036-230500-
NORTHWEST MISSISSIPPI
  
CITY           SKY/WX    TMP DP  RH WIND       PRES   REMARKS
BATESVILLE       N/A     57  55  94 CALM      30.10S                  
CLARKSDALE     CLEAR     61  54  77 CALM      30.09S                  
CLEVELAND      FAIR      65  51  59 S5        30.08F                  
GREENWOOD      FAIR      61  55  81 CALM      30.09S                  
GREENVILLE     FAIR      64  50  60 SW5       30.08S                  
OLIVE BRANCH   CLEAR     61  52  72 S6        30.09S                  
OXFORD         FAIR      55  52  88 CALM      30.12S                  
TUNICA           N/A     57  54  88 CALM      30.10S                  
WINONA         FAIR      58  56  94 CALM      30.11S                  
$$

MSZ003>006-009-014>017-022>024-029>033-037>039-230500-
NORTHEAST MISSISSIPPI
  
CITY           SKY/WX    TMP DP  RH WIND       PRES   REMARKS
ABERDEEN       FAIR      57  57 100 CALM      30.13S                  
COLUMBUS AFB   FAIR      60  55  84 CALM      30.11S                  
CORINTH        FAIR      59  57  94 CALM      30.10F                  
GOLDN TRIANGLE FAIR      64  55  72 S5        30.12S                  
TUPELO         FAIR      64  55  72 S3        30.11S                  
$$

MSZ040-058-230500-
CENTRAL MISSISSIPPI
  
CITY           SKY/WX    TMP DP  RH WIND       PRES   REMARKS
JACKSON INTL   FAIR      64  51  62 S7        30.12S                  
JACKSON HAWKNS FAIR      64  55  72 SE5       30.12S                  
MADISON        FAIR      63  54  72 CALM      30.11F                  
MERIDIAN KEY   FAIR      61  55  81 S3        30.13F                  
MERIDIAN NAS   MOCLDY    60  54  80 CALM      30.13F                  
RAYMOND        FAIR      59  59 100 CALM      30.11F                  
VICKSBURG VKS  CLEAR     61  59  94 CALM      30.11S                  
$$

MSZ059>079-230500-
SOUTH MISSISSIPPI
  
CITY           SKY/WX    TMP DP  RH WIND       PRES   REMARKS
HATTIESBURG    FAIR      59  51  75 CALM      30.15F                  
LAUREL         CLEAR     64  50  60 CALM      30.15S                  
MCCOMB         FAIR      62  53  72 SE6       30.14S                  
NATCHEZ        FAIR      64  56  75 S8        30.12S                  
PINE BELT      FAIR      61  51  70 S5        30.16S                  
$$

MSZ080>082-230500-
COASTAL MISSISSIPPI
  
CITY           SKY/WX    TMP DP  RH WIND       PRES   REMARKS
BILOXI         FAIR      65  57  76 SW3       30.15S                  
PASCAGOULA     FOG       55  51  86 CALM      30.16S VSB 1/2          
GULFPORT       FAIR      59  56  89 CALM      30.15S                  
$$

LAZ007>009-015>016-023>026-230500-
NORTHEAST LOUISIANA
  
CITY           SKY/WX    TMP DP  RH WIND       PRES   REMARKS
BASTROP        FAIR      58  58  99 CALM      30.10R                  
TALLULAH/VBURG FAIR      65  56  72 S5        30.10F                  
VIDALIA        FAIR      66  58  75 SE10      30.11R                  
$$